Zurück zum Katalog

COSMOS 2154

AktivMilitärPO
NORAD 21666·PAYLOAD·🇷🇺 Russia

Gestartet Aug 22, 1991 von Plesetsk Cosmodrome

Loading…

Nächste Überflüge (nächste 24 Stunden)

TLE

AktuellSource: Space-Track

Epoche: Sep 14, 2026, 09:08 UTC

1 21666U 91059A   26257.38078347  .00000037  00000-0  24267-4 0  9992
2 21666  82.9063  43.1269 0024259 327.2648  61.2371 13.73544386757081

Verfolge COSMOS 2154 in Echtzeit mit AllMySat

Download on the App Store